SCP
0 0 0 0 0 0 0 0 0 0 0 0 0 0 0 0 0 0 0 0 0 0 0 0 0 0 0 0 0 0 0 0 0 0 0 0 0 0 0 0 0 0 0
0 0 0 0 0 0 0 0 0 0 0 0 0 0 0 0 0 0 0 0 0 0 0 0 0 0 0 0 0 0 0 0 0 0 0 0 0 0 0 0 0 0 0
0 0 0 0 0 0 0 0 0 0 0 0 0 0 0 0 0 0 0 0 0 0 0 0 0 0 0 0 0 0 0 0 0 0 0 0 0 0 0 0 0 0 0
0 0 0 0 0 0 0 0 0 0 0 0 0 0 0 0 0 0 0 0 0 0 0 0 0 0 0 0 0 0 0 0 0 0 0 0 0 0 0 0 0 0 0
0 0 0 0 0 0 0 0 0 0 0 0 0 0 0 0 0 0 0 0 0 0 0 0 0 0 0 0 0 0 0 0 0 0 0 0 0 0 0 0 0 0 0
0 0 0 0 0 0 0 0 0 0 0 0 0 0 0 0 0 0 0 0 0 0 0 0 0 0 0 0 0 0 0 0 0 0 0 0 0 0 0 0 0 0 0
0 0 0 0 0 0 0 0 0 0 0 0 0 0 0 0 0 0 0 0 0 0 0 0 0 0 0 0 0 0 0 0 0 0 0 0 0 0 0 0 0 0 0
0 0 0 0 0 0 0 0 0 0 0 0 0 0 0 0 0 0 0 0 0 0 0 0 0 0 0 0 0 0 0 0 0 0 0 0 0 0 0 0 0 0 0
0 0 0 0 0 0 0 0 0 0 0 0 0 0 0 0 0 0 0 0 0 0 0 0 0 0 0 0 0 0 0 0 0 0 0 0 0 0 0 0 0 0 0
0 0 0 0 0 0 0 0 0 0 0 0 0 0 0 0 0 0 0 0 0 0 0 0 0 0 0 0 0 0 0 0 0 0 0 0 0 0 0 0 0 0 0
0 0 0 0 0 0 0 0 0 0 0 0 0 0 0 0 0 0 0 0 0 0 0 0 0 0 0 0 0 0 0 0 0 0 0 0 0 0 0 0 0 0 0
0 0 0 0 0 0 0 0 0 0 0 0 0 0 0 0 0 0 0 0 0 0 0 0 0 0 0 0 0 0 0 0 0 0 0 0 0 0 0 0 0 0 0
0 0 0 0 0 0 0 0 0 0 0 0 0 0 0 0 0 0 0 0 0 0 0 0 0 0 0 0 0 0 0 0 0 0 0 0 0 0 0 0 0 0 0
0 0 0 0 0 0 0 0 0 0 0 0 0 0 0 0 0 0 0 0 0 0 0 0 0 0 0 0 0 0 0 0 0 0 0 0 0 0 0 0 0 0 0
0 0 0 0 0 0 0 0 0 0 0 0 0 0 0 0 0 0 0 0 0 0 0 0 0 0 0 0 0 0 0 0 0 0 0 0 0 0 0 0 0 0 0
0 0 0 0 0 0 0 0 0 0 0 0 0 0 0 0 0 0 0 0 0 0 0 0 0 0 0 0 0 0 0 0 0 0 0 0 0 0 0 0 0 0 0
0 0 0 0 0 0 0 0 0 0 0 0 0 0 0 0 0 0 0 0 0 0 0 0 0 0 0 0 0 0 0 0 0 0 0 0 0 0 0 0 0 0 0
0 0 0 0 0 0 0 0 0 0 0 0 0 0 0 0 0 0 0 0 0 0 0 0 0 0 0 0 0 0 0 0 0 0 0 0 0 0 0 0 0 0 0
0 0 0 0 0 0 0 0 0 0 0 0 0 0 0 0 0 0 0 0 0 0 0 0 0 0 0 0 0 0 0 0 0 0 0 0 0 0 0 0 0 0 0
0 0 0 0 0 0 0 0 0 0 0 0 0 0 0 0 0 0 0 0 0 0 0 0 0 0 0 0 0 0 0 0 0 0 0 0 0 0 0 0 0 0 0
0 0 0 0 0 0 0 0 0 0 0 0 0 0 0 0 0 0 0 0 0 0 0 0 0 0 0 0 0 0 0 0 0 0 0 0 0 0 0 0 0 0 0
0 0 0 0 0 0 0 0 0 0 0 0 0 0 0 0 0 0 0 0 0 0 0 0 0 0 0 0 0 0 0 0 0 0 0 0 0 0 0 0 0 0 0
0 0 0 0 0 0 0 0 0 0 0 0 0 0 0 0 0 0 0 0 0 0 0 0 0 0 0 0 0 0 0 0 0 0 0 0 0 0 0 0 0 0 0
0 0 0 0 0 0 0 0 0 0 0 0 0 0 0 0 0 0 0 0 0 0 0 0 0 0 0 0 0 0 0 0 0 0 0 0 0 0 0 0 0 0 0
0 0 0 0 0 0 0 0 0 0 0 0 0 0 0 0 0 0 0 0 0 0 0 0 0 0 0 0 0 0 0 0 0 0 0 0 0 0 0 0 0 0 0
0 0 0 0 0 0 0 0 0 0 0 0 0 0 0 0 0 0 0 0 0 0 0 0 0 0 0 0 0 0 0 0 0 0 0 0 0 0 0 0 0 0 0
Wind_Speed_500mb
60 54 56 58 60 63 62 58 55 51 50 51 52 55 56 59 56 64 67 67 70 72 75 76 68 57 50 42 42 48 46 45 29 39 36 36 40 33 28 20 16 19 38
48 45 50 51 54 57 55 55 51 49 49 49 51 52 54 59 60 67 68 70 69 72 74 72 64 56 48 37 42 43 50 43 29 25 27 40 39 33 33 21 17 40 34
44 45 44 49 51 51 50 51 50 49 49 51 53 55 58 61 61 64 60 61 63 63 59 57 56 53 44 49 48 55 48 38 32 29 31 39 39 37 27 20 36 30 30
41 42 42 42 44 46 47 50 49 47 48 51 51 48 51 57 60 62 62 60 58 54 54 54 55 49 55 48 53 49 50 43 36 26 30 33 38 31 24 25 29 28 28
40 41 43 42 44 45 49 51 50 51 50 50 50 50 53 59 60 61 61 59 58 57 56 54 53 52 44 53 61 58 44 29 27 36 37 43 40 28 29 33 31 30 29
39 49 53 53 52 52 54 57 56 56 56 55 53 51 54 56 59 60 58 58 57 56 58 57 60 51 55 61 60 45 48 39 38 42 46 41 31 28 35 33 32 31 34
51 55 60 66 64 65 64 63 63 63 60 58 54 55 56 58 59 59 59 60 59 60 61 66 59 63 67 64 60 57 39 37 44 41 45 37 31 35 38 35 33 33 36
54 58 65 72 74 70 72 69 67 66 64 60 56 54 58 59 59 58 61 62 64 67 72 67 61 69 71 68 63 46 33 42 49 49 48 41 38 41 39 38 39 40 41
62 63 61 67 74 76 74 70 69 67 66 64 60 57 60 58 60 64 67 64 70 77 67 62 69 64 73 66 59 36 39 44 51 50 51 49 44 44 44 44 43 43 48
48 53 54 58 66 73 71 70 69 67 65 65 63 55 56 59 64 69 71 70 78 77 70 74 59 74 60 66 52 45 46 44 52 53 53 51 48 49 50 48 44 44 49
43 46 50 51 56 60 64 67 66 65 63 65 64 63 59 59 65 70 73 76 86 79 79 81 70 75 67 58 56 44 37 39 44 49 54 55 55 54 54 56 51 48 53
42 41 40 41 45 47 53 59 60 60 61 62 64 64 62 60 63 71 76 76 81 81 84 78 65 74 71 60 55 43 37 42 43 52 60 63 64 62 57 58 54 55 56
40 36 33 31 32 36 41 45 51 54 59 62 64 66 65 66 69 72 76 83 78 80 83 77 62 73 69 64 59 53 48 48 44 54 64 66 66 62 59 59 60 59 61
37 34 30 26 25 27 32 36 42 47 54 59 61 65 66 67 65 64 71 74 73 83 74 68 64 79 73 67 66 59 56 56 50 50 55 55 60 66 67 62 64 61 65
29 27 22 19 18 21 24 27 33 34 39 45 52 56 58 59 54 48 57 76 81 76 73 73 72 74 78 77 74 63 65 63 61 56 54 56 63 69 68 65 68 69 74
26 24 16 13 11 13 17 20 25 28 30 36 44 48 45 39 35 33 36 52 71 74 71 73 73 72 76 80 81 70 72 73 68 65 64 63 63 72 73 77 75 75 78
29 21 21 18 17 16 20 20 21 24 27 33 37 37 39 34 32 29 31 33 56 68 69 70 73 72 74 77 77 75 75 76 72 70 73 74 70 77 79 77 77 79 80
33 28 27 25 27 28 27 26 23 25 30 30 30 37 36 32 26 27 25 25 49 62 70 64 73 75 73 73 70 71 71 71 77 75 73 74 76 74 79 80 82 81 79
35 24 23 25 30 28 26 24 22 24 28 28 29 31 37 40 33 29 33 38 48 58 68 69 75 77 76 73 72 76 71 63 61 63 63 67 73 76 78 79 82 82 77
37 35 32 29 28 27 25 23 23 23 25 24 23 21 25 33 39 38 38 46 50 50 55 60 67 72 75 76 76 73 68 63 60 62 61 60 60 64 68 71 73 73 73
40 38 36 29 27 28 28 27 24 22 21 23 25 21 16 17 21 37 41 41 44 47 47 47 47 49 51 52 55 55 55 58 60 60 64 64 64 64 63 66 69 70 72
30 28 29 30 32 32 30 26 23 21 20 21 21 22 22 25 26 31 34 39 42 46 49 54 58 59 57 56 59 58 58 58 60 64 63 63 63 62 64 67 69 71 71
24 20 24 27 31 34 32 30 28 26 25 25 23 23 23 25 29 29 32 42 48 53 54 54 53 52 52 54 56 58 58 58 59 59 60 62 63 65 65 67 68 69 70
21 23 26 29 30 29 28 29 27 26 26 25 24 24 24 26 28 30 32 35 39 42 46 52 57 61 63 66 70 72 75 76 74 72 70 70 70 68 66 64 65 63 62
15 17 19 20 21 21 21 21 19 17 16 15 15 16 17 18 19 20 22 24 27 30 33 37 40 43 45 48 52 55 59 61 62 62 61 60 59 57 54 52 51 49 51
6 7 8 9 9 9 8 9 8 6 5 6 8 10 13 15 17 20 22 25 28 30 31 33 36 39 41 44 45 46 48 48 49 48 47 46 45 44 41 40 41 45 47
Wind_Direction_500mb
242 242 240 237 235 236 241 246 246 244 241 241 240 237 236 232 237 238 236 239 237 232 229 226 225 231 235 227 238 234 223 213 208 203 209 208 211 216 227 247 259 289 309
244 244 241 240 237 238 241 245 246 244 243 240 237 235 239 238 240 243 242 242 235 231 227 228 227 228 223 228 221 227 217 213 209 194 208 213 209 218 238 237 271 296 286
242 241 240 241 240 242 242 243 244 244 245 242 242 243 239 239 242 239 236 239 236 234 230 228 224 220 221 217 221 214 204 209 198 220 214 212 215 224 218 250 283 275 289
240 240 241 242 245 246 247 246 245 245 245 244 252 246 246 238 238 239 238 235 229 225 222 218 209 220 221 215 210 206 206 200 231 217 221 222 220 209 233 263 263 277 290
252 248 248 247 248 251 252 250 247 245 246 243 241 243 242 239 239 238 235 228 223 218 210 212 222 205 208 219 212 197 205 240 242 243 225 204 205 230 265 253 263 276 285
274 272 264 258 257 258 259 255 251 249 245 241 240 237 241 242 240 234 227 225 218 216 215 212 200 210 217 199 194 216 238 249 248 229 207 213 233 245 247 260 270 280 293
285 280 273 266 260 260 259 256 251 248 247 244 241 238 241 241 237 229 218 216 218 216 216 211 205 205 214 209 215 223 242 244 229 224 219 233 244 249 252 258 269 278 288
288 289 282 271 264 262 263 259 254 250 247 245 242 244 244 239 233 226 215 216 217 214 209 213 225 230 209 211 219 237 250 236 225 224 227 237 239 251 258 264 271 278 283
273 277 279 278 269 263 261 261 258 252 248 244 240 241 243 240 232 220 217 217 213 209 218 222 238 213 205 215 232 247 243 228 227 230 234 240 244 251 258 262 270 278 281
288 280 278 277 272 266 265 263 259 255 251 246 240 241 241 239 231 222 220 216 214 215 217 217 216 210 211 235 232 251 237 233 231 234 235 242 252 259 264 265 267 273 281
293 284 276 272 270 268 265 259 256 253 250 244 241 238 239 238 231 226 225 221 217 219 218 218 220 213 223 225 243 241 244 244 235 236 240 247 254 259 265 272 275 276 276
302 296 285 275 268 264 260 257 254 250 246 243 242 239 237 237 230 229 228 224 222 222 221 227 228 218 220 240 238 251 255 251 237 236 239 247 252 257 265 272 275 276 272
306 300 292 279 268 263 258 256 252 247 243 242 240 240 238 238 232 227 223 228 226 222 230 233 221 221 230 244 244 247 246 249 261 248 248 247 252 260 267 268 269 269 271
317 310 303 292 279 268 259 252 247 245 247 245 242 242 242 243 240 232 225 221 220 225 234 224 230 224 229 241 246 246 247 250 262 262 260 257 258 259 267 270 271 272 273
327 318 313 306 298 281 271 266 262 258 254 257 258 254 249 249 250 246 239 224 228 231 227 226 231 231 224 236 237 245 248 251 258 264 264 263 260 262 269 274 274 272 272
322 317 317 327 333 309 292 277 267 258 249 250 252 253 253 252 244 244 246 239 230 232 228 226 233 232 231 236 237 248 253 252 257 263 265 264 264 267 271 274 272 271 273
291 295 298 306 305 306 303 293 284 275 266 257 253 252 252 251 247 235 221 221 219 221 231 231 237 245 243 239 246 254 257 254 256 262 262 266 269 270 272 274 275 273 273
272 271 277 280 284 286 289 289 278 268 266 264 257 245 249 253 243 234 221 215 210 216 225 229 244 254 252 246 250 260 266 264 258 263 269 267 269 273 271 272 274 276 277
265 258 262 266 277 274 278 281 270 259 257 256 246 244 239 233 237 231 230 227 222 222 225 233 239 246 253 257 259 266 269 268 271 272 273 272 271 274 273 275 276 277 277
256 250 251 258 267 274 274 270 261 258 255 253 251 243 232 232 224 225 222 226 238 239 238 241 243 245 247 253 261 262 265 272 275 276 278 278 276 275 275 277 277 275 274
263 260 256 255 266 270 271 269 265 257 247 241 240 244 237 237 238 235 233 236 241 253 261 264 264 265 268 268 266 267 269 274 276 276 278 278 277 276 277 277 275 273 271
259 257 260 262 259 257 254 252 249 250 244 240 238 235 226 230 228 225 226 236 242 244 248 251 254 257 259 259 266 273 277 276 274 277 278 277 278 276 276 275 273 272 270
262 257 261 259 255 252 251 252 251 249 248 250 250 248 247 243 242 240 236 236 238 242 245 248 251 251 251 253 257 259 260 261 265 265 265 265 266 269 271 271 271 269 269
261 255 249 245 243 243 244 244 242 243 245 248 252 254 254 254 253 251 249 251 253 254 255 256 258 260 261 263 264 264 265 265 265 265 266 267 270 271 270 268 268 267 266
260 248 240 236 237 236 239 243 242 241 246 251 256 261 265 264 269 271 271 269 268 267 268 270 272 273 273 271 270 269 269 270 271 270 269 268 267 266 265 265 264 261 258
256 239 228 218 218 221 222 221 231 232 242 261 278 284 282 278 278 279 281 282 283 283 282 281 281 281 281 281 281 280 279 279 278 275 270 266 263 262 261 261 261 259 259
Wind_Speed_850mb
60 54 56 58 60 63 62 58 55 51 50 51 52 55 56 59 56 64 67 67 70 72 75 76 68 57 50 42 42 48 46 45 29 39 36 36 40 33 28 20 16 19 38
48 45 50 51 54 57 55 55 51 49 49 49 51 52 54 59 60 67 68 70 69 72 74 72 64 56 48 37 42 43 50 43 29 25 27 40 39 33 33 21 17 40 34
44 45 44 49 51 51 50 51 50 49 49 51 53 55 58 61 61 64 60 61 63 63 59 57 56 53 44 49 48 55 48 38 32 29 31 39 39 37 27 20 36 30 30
41 42 42 42 44 46 47 50 49 47 48 51 51 48 51 57 60 62 62 60 58 54 54 54 55 49 55 48 53 49 50 43 36 26 30 33 38 31 24 25 29 28 28
40 41 43 42 44 45 49 51 50 51 50 50 50 50 53 59 60 61 61 59 58 57 56 54 53 52 44 53 61 58 44 29 27 36 37 43 40 28 29 33 31 30 29
39 49 53 53 52 52 54 57 56 56 56 55 53 51 54 56 59 60 58 58 57 56 58 57 60 51 55 61 60 45 48 39 38 42 46 41 31 28 35 33 32 31 34
51 55 60 66 64 65 64 63 63 63 60 58 54 55 56 58 59 59 59 60 59 60 61 66 59 63 67 64 60 57 39 37 44 41 45 37 31 35 38 35 33 33 36
54 58 65 72 74 70 72 69 67 66 64 60 56 54 58 59 59 58 61 62 64 67 72 67 61 69 71 68 63 46 33 42 49 49 48 41 38 41 39 38 39 40 41
62 63 61 67 74 76 74 70 69 67 66 64 60 57 60 58 60 64 67 64 70 77 67 62 69 64 73 66 59 36 39 44 51 50 51 49 44 44 44 44 43 43 48
48 53 54 58 66 73 71 70 69 67 65 65 63 55 56 59 64 69 71 70 78 77 70 74 59 74 60 66 52 45 46 44 52 53 53 51 48 49 50 48 44 44 49
43 46 50 51 56 60 64 67 66 65 63 65 64 63 59 59 65 70 73 76 86 79 79 81 70 75 67 58 56 44 37 39 44 49 54 55 55 54 54 56 51 48 53
42 41 40 41 45 47 53 59 60 60 61 62 64 64 62 60 63 71 76 76 81 81 84 78 65 74 71 60 55 43 37 42 43 52 60 63 64 62 57 58 54 55 56
40 36 33 31 32 36 41 45 51 54 59 62 64 66 65 66 69 72 76 83 78 80 83 77 62 73 69 64 59 53 48 48 44 54 64 66 66 62 59 59 60 59 61
37 34 30 26 25 27 32 36 42 47 54 59 61 65 66 67 65 64 71 74 73 83 74 68 64 79 73 67 66 59 56 56 50 50 55 55 60 66 67 62 64 61 65
29 27 22 19 18 21 24 27 33 34 39 45 52 56 58 59 54 48 57 76 81 76 73 73 72 74 78 77 74 63 65 63 61 56 54 56 63 69 68 65 68 69 74
26 24 16 13 11 13 17 20 25 28 30 36 44 48 45 39 35 33 36 52 71 74 71 73 73 72 76 80 81 70 72 73 68 65 64 63 63 72 73 77 75 75 78
29 21 21 18 17 16 20 20 21 24 27 33 37 37 39 34 32 29 31 33 56 68 69 70 73 72 74 77 77 75 75 76 72 70 73 74 70 77 79 77 77 79 80
33 28 27 25 27 28 27 26 23 25 30 30 30 37 36 32 26 27 25 25 49 62 70 64 73 75 73 73 70 71 71 71 77 75 73 74 76 74 79 80 82 81 79
35 24 23 25 30 28 26 24 22 24 28 28 29 31 37 40 33 29 33 38 48 58 68 69 75 77 76 73 72 76 71 63 61 63 63 67 73 76 78 79 82 82 77
37 35 32 29 28 27 25 23 23 23 25 24 23 21 25 33 39 38 38 46 50 50 55 60 67 72 75 76 76 73 68 63 60 62 61 60 60 64 68 71 73 73 73
40 38 36 29 27 28 28 27 24 22 21 23 25 21 16 17 21 37 41 41 44 47 47 47 47 49 51 52 55 55 55 58 60 60 64 64 64 64 63 66 69 70 72
30 28 29 30 32 32 30 26 23 21 20 21 21 22 22 25 26 31 34 39 42 46 49 54 58 59 57 56 59 58 58 58 60 64 63 63 63 62 64 67 69 71 71
24 20 24 27 31 34 32 30 28 26 25 25 23 23 23 25 29 29 32 42 48 53 54 54 53 52 52 54 56 58 58 58 59 59 60 62 63 65 65 67 68 69 70
21 23 26 29 30 29 28 29 27 26 26 25 24 24 24 26 28 30 32 35 39 42 46 52 57 61 63 66 70 72 75 76 74 72 70 70 70 68 66 64 65 63 62
15 17 19 20 21 21 21 21 19 17 16 15 15 16 17 18 19 20 22 24 27 30 33 37 40 43 45 48 52 55 59 61 62 62 61 60 59 57 54 52 51 49 51
6 7 8 9 9 9 8 9 8 6 5 6 8 10 13 15 17 20 22 25 28 30 31 33 36 39 41 44 45 46 48 48 49 48 47 46 45 44 41 40 41 45 47
Wind_Direction_850mb
242 242 240 237 235 236 241 246 246 244 241 241 240 237 236 232 237 238 236 239 237 232 229 226 225 231 235 227 238 234 223 213 208 203 209 208 211 216 227 247 259 289 309
244 244 241 240 237 238 241 245 246 244 243 240 237 235 239 238 240 243 242 242 235 231 227 228 227 228 223 228 221 227 217 213 209 194 208 213 209 218 238 237 271 296 286
242 241 240 241 240 242 242 243 244 244 245 242 242 243 239 239 242 239 236 239 236 234 230 228 224 220 221 217 221 214 204 209 198 220 214 212 215 224 218 250 283 275 289
240 240 241 242 245 246 247 246 245 245 245 244 252 246 246 238 238 239 238 235 229 225 222 218 209 220 221 215 210 206 206 200 231 217 221 222 220 209 233 263 263 277 290
252 248 248 247 248 251 252 250 247 245 246 243 241 243 242 239 239 238 235 228 223 218 210 212 222 205 208 219 212 197 205 240 242 243 225 204 205 230 265 253 263 276 285
274 272 264 258 257 258 259 255 251 249 245 241 240 237 241 242 240 234 227 225 218 216 215 212 200 210 217 199 194 216 238 249 248 229 207 213 233 245 247 260 270 280 293
285 280 273 266 260 260 259 256 251 248 247 244 241 238 241 241 237 229 218 216 218 216 216 211 205 205 214 209 215 223 242 244 229 224 219 233 244 249 252 258 269 278 288
288 289 282 271 264 262 263 259 254 250 247 245 242 244 244 239 233 226 215 216 217 214 209 213 225 230 209 211 219 237 250 236 225 224 227 237 239 251 258 264 271 278 283
273 277 279 278 269 263 261 261 258 252 248 244 240 241 243 240 232 220 217 217 213 209 218 222 238 213 205 215 232 247 243 228 227 230 234 240 244 251 258 262 270 278 281
288 280 278 277 272 266 265 263 259 255 251 246 240 241 241 239 231 222 220 216 214 215 217 217 216 210 211 235 232 251 237 233 231 234 235 242 252 259 264 265 267 273 281
293 284 276 272 270 268 265 259 256 253 250 244 241 238 239 238 231 226 225 221 217 219 218 218 220 213 223 225 243 241 244 244 235 236 240 247 254 259 265 272 275 276 276
302 296 285 275 268 264 260 257 254 250 246 243 242 239 237 237 230 229 228 224 222 222 221 227 228 218 220 240 238 251 255 251 237 236 239 247 252 257 265 272 275 276 272
306 300 292 279 268 263 258 256 252 247 243 242 240 240 238 238 232 227 223 228 226 222 230 233 221 221 230 244 244 247 246 249 261 248 248 247 252 260 267 268 269 269 271
317 310 303 292 279 268 259 252 247 245 247 245 242 242 242 243 240 232 225 221 220 225 234 224 230 224 229 241 246 246 247 250 262 262 260 257 258 259 267 270 271 272 273
327 318 313 306 298 281 271 266 262 258 254 257 258 254 249 249 250 246 239 224 228 231 227 226 231 231 224 236 237 245 248 251 258 264 264 263 260 262 269 274 274 272 272
322 317 317 327 333 309 292 277 267 258 249 250 252 253 253 252 244 244 246 239 230 232 228 226 233 232 231 236 237 248 253 252 257 263 265 264 264 267 271 274 272 271 273
291 295 298 306 305 306 303 293 284 275 266 257 253 252 252 251 247 235 221 221 219 221 231 231 237 245 243 239 246 254 257 254 256 262 262 266 269 270 272 274 275 273 273
272 271 277 280 284 286 289 289 278 268 266 264 257 245 249 253 243 234 221 215 210 216 225 229 244 254 252 246 250 260 266 264 258 263 269 267 269 273 271 272 274 276 277
265 258 262 266 277 274 278 281 270 259 257 256 246 244 239 233 237 231 230 227 222 222 225 233 239 246 253 257 259 266 269 268 271 272 273 272 271 274 273 275 276 277 277
256 250 251 258 267 274 274 270 261 258 255 253 251 243 232 232 224 225 222 226 238 239 238 241 243 245 247 253 261 262 265 272 275 276 278 278 276 275 275 277 277 275 274
263 260 256 255 266 270 271 269 265 257 247 241 240 244 237 237 238 235 233 236 241 253 261 264 264 265 268 268 266 267 269 274 276 276 278 278 277 276 277 277 275 273 271
259 257 260 262 259 257 254 252 249 250 244 240 238 235 226 230 228 225 226 236 242 244 248 251 254 257 259 259 266 273 277 276 274 277 278 277 278 276 276 275 273 272 270
262 257 261 259 255 252 251 252 251 249 248 250 250 248 247 243 242 240 236 236 238 242 245 248 251 251 251 253 257 259 260 261 265 265 265 265 266 269 271 271 271 269 269
261 255 249 245 243 243 244 244 242 243 245 248 252 254 254 254 253 251 249 251 253 254 255 256 258 260 261 263 264 264 265 265 265 265 266 267 270 271 270 268 268 267 266
260 248 240 236 237 236 239 243 242 241 246 251 256 261 265 264 269 271 271 269 268 267 268 270 272 273 273 271 270 269 269 270 271 270 269 268 267 266 265 265 264 261 258
256 239 228 218 218 221 222 221 231 232 242 261 278 284 282 278 278 279 281 282 283 283 282 281 281 281 281 281 281 280 279 279 278 275 270 266 263 262 261 261 261 259 259